Total_Precipitation_Accumulation
2.35 2.62 3.18 2.85 2.37 2.22 2.28 2.22 2.10 1.92 1.76 1.72 1.67 1.54 1.43 1.27 1.15 1.08 1.02 1.00 0.95 0.93 0.93 1.01 1.03 0.98 1.10 1.25 1.34 1.37 1.41 1.50 1.68 1.94 2.09 2.10 2.19 2.31 2.56 2.79 2.66 1.96 1.88
1.94 2.33 2.85 2.60 2.13 2.04 2.03 2.11 2.03 1.89 1.82 1.70 1.70 1.60 1.52 1.41 1.21 1.08 1.00 0.93 0.93 0.94 0.88 0.89 0.96 0.92 0.98 1.10 1.24 1.27 1.39 1.64 2.10 2.51 2.69 2.48 2.45 2.49 2.62 2.66 2.54 1.99 1.84
1.56 1.76 2.09 2.23 2.01 1.90 1.80 1.93 1.95 1.83 1.73 1.61 1.57 1.52 1.48 1.38 1.16 0.98 0.92 0.92 0.97 0.96 0.84 0.90 0.93 0.87 0.96 1.08 1.21 1.22 1.43 1.85 2.52 3.20 3.32 2.67 2.26 2.55 2.66 2.56 2.24 1.82 1.65
1.29 1.57 1.62 1.92 1.85 1.77 1.72 1.82 1.76 1.65 1.52 1.50 1.43 1.39 1.35 1.32 1.11 0.88 0.82 0.85 0.89 0.87 0.85 0.94 0.95 0.93 0.94 1.03 1.15 1.36 1.66 1.93 2.53 3.06 3.01 2.19 1.80 2.11 2.33 2.02 1.79 1.60 1.41
1.18 1.43 1.69 1.81 1.65 1.60 1.54 1.59 1.55 1.52 1.46 1.44 1.35 1.34 1.27 1.20 1.06 0.88 0.82 0.83 0.86 0.88 0.86 0.91 1.01 1.02 1.00 1.02 1.18 1.47 1.82 2.16 2.56 2.72 2.17 2.35 2.26 2.04 1.90 1.73 1.63 1.39 1.16
0.98 1.09 1.42 1.57 1.47 1.49 1.41 1.34 1.43 1.47 1.48 1.42 1.29 1.24 1.26 1.21 1.15 0.96 0.83 0.82 0.89 0.94 0.94 0.96 1.08 1.10 1.00 1.00 1.17 1.53 1.84 2.27 2.38 1.77 1.37 1.76 1.80 1.77 1.72 1.66 1.50 1.33 1.18
0.92 0.99 1.20 1.46 1.38 1.34 1.30 1.28 1.38 1.45 1.46 1.34 1.22 1.11 1.18 1.19 1.09 0.93 0.87 0.85 0.83 0.90 1.00 1.03 1.09 1.09 1.06 1.10 1.20 1.48 1.87 2.19 1.98 1.36 1.17 1.48 1.43 1.47 1.63 1.65 1.56 1.36 1.17
0.91 0.93 1.13 1.43 1.39 1.32 1.30 1.33 1.45 1.50 1.37 1.27 1.16 1.06 1.06 1.08 1.04 0.97 0.94 0.93 0.85 0.90 1.05 1.08 1.07 1.02 1.05 1.17 1.32 1.47 1.88 1.86 1.43 1.21 1.12 1.23 1.05 1.33 1.53 1.48 1.39 1.25 1.13
1.25 1.20 1.20 1.24 1.27 1.33 1.49 1.58 1.63 1.57 1.35 1.24 1.18 1.08 1.01 0.99 0.97 0.94 1.01 1.02 0.94 0.97 1.07 1.14 1.12 1.09 1.13 1.24 1.37 1.55 1.89 1.99 1.63 1.47 1.18 1.15 0.99 1.34 1.60 1.40 1.24 1.14 1.15
2.00 1.83 1.58 1.41 1.48 1.39 1.47 1.67 1.78 1.51 1.30 1.23 1.21 1.12 1.10 1.16 1.15 1.19 1.14 1.10 1.17 1.26 1.32 1.39 1.33 1.27 1.35 1.43 1.55 1.73 1.95 1.82 1.60 1.75 1.54 1.18 1.13 1.48 1.70 1.72 1.52 1.31 1.21
2.49 2.27 2.00 1.80 1.63 1.62 1.61 1.66 1.91 1.68 1.45 1.51 1.64 1.55 1.60 1.92 1.85 1.88 1.51 1.43 1.59 1.77 1.85 1.91 1.86 1.74 1.66 1.58 1.80 2.01 1.87 1.74 1.97 2.12 1.80 1.31 1.41 1.87 2.04 2.11 1.92 1.73 1.58
2.50 2.22 2.10 2.08 1.78 1.70 1.79 2.16 2.58 2.20 2.00 2.02 2.23 2.12 2.41 2.49 2.39 1.78 1.78 2.04 2.21 2.54 2.67 2.69 2.72 2.40 2.04 1.87 2.10 2.12 1.85 1.95 2.23 1.93 1.60 1.40 1.59 2.04 2.34 2.38 2.17 1.92 1.85
2.41 2.32 2.06 2.31 2.07 2.08 2.37 2.47 2.65 2.65 2.50 2.46 2.52 2.48 2.72 2.46 2.13 2.04 2.36 2.72 2.94 3.09 3.24 3.28 3.19 2.68 2.62 2.80 2.76 2.51 2.39 2.23 2.30 2.01 1.63 1.62 1.80 2.18 2.50 2.56 2.34 2.14 2.00
2.37 2.34 2.34 2.47 2.53 2.67 2.65 2.54 2.42 2.17 2.16 2.32 2.48 2.42 2.59 2.65 2.65 2.63 2.80 2.91 3.16 3.51 3.88 3.80 3.79 3.49 3.41 3.18 2.94 2.95 2.76 2.38 2.54 2.63 2.15 1.91 2.05 2.46 2.69 2.69 2.53 2.37 2.36
2.95 2.84 2.92 3.11 3.06 3.00 2.91 2.60 2.18 2.02 1.92 1.99 2.09 2.19 2.15 2.46 2.76 2.80 2.65 2.72 2.66 2.86 3.31 3.89 3.81 3.97 3.88 3.50 3.01 2.89 2.93 2.74 2.68 2.62 2.25 2.27 2.50 2.56 2.64 2.69 2.67 2.61 2.63
3.92 3.76 3.62 3.72 3.33 3.07 2.92 2.59 2.35 2.07 2.11 2.01 1.90 1.85 2.02 2.27 2.54 2.51 2.50 2.73 2.76 2.66 2.83 3.31 3.44 3.83 3.79 3.44 2.88 2.67 2.64 2.69 2.54 2.51 2.32 2.30 2.44 2.30 2.36 2.70 2.99 3.12 3.02
5.04 4.67 4.11 3.84 3.56 3.30 3.07 2.70 2.39 2.22 2.03 2.15 2.12 1.96 1.96 2.06 2.25 2.24 2.35 2.36 2.42 2.33 2.42 2.63 2.83 3.10 3.07 2.95 2.86 2.71 2.58 2.50 2.31 2.36 2.39 2.31 2.06 2.16 2.30 2.50 2.80 3.01 3.19
5.83 5.29 4.57 3.85 3.90 3.77 3.50 2.86 2.46 2.27 2.17 2.10 2.01 1.85 1.71 1.77 1.77 1.88 1.89 1.87 1.89 1.76 1.88 2.23 2.31 2.56 2.77 2.83 2.94 2.69 2.50 2.55 2.35 2.34 2.30 2.34 2.36 2.04 2.33 2.45 2.55 2.63 3.01
5.97 5.80 5.20 5.04 4.81 4.14 3.44 2.85 2.48 2.28 2.21 1.99 1.88 1.79 1.68 1.57 1.57 1.71 1.82 1.88 1.61 1.59 1.70 1.58 2.02 2.26 2.48 2.54 2.20 2.32 2.12 2.16 2.09 1.85 1.91 1.85 2.08 2.10 2.25 2.20 2.35 2.38 2.73
4.93 4.85 4.80 4.95 4.52 3.91 3.29 2.83 2.57 2.33 2.06 1.89 1.82 1.81 1.69 1.63 1.63 1.82 1.66 1.62 1.49 1.76 1.97 2.05 2.34 2.29 2.21 2.27 1.91 2.03 1.88 1.74 1.76 1.69 1.57 1.65 1.74 1.64 1.92 2.17 2.26 1.98 2.30
3.41 3.52 3.82 4.04 3.78 3.33 2.94 2.48 2.30 2.24 2.01 1.82 1.73 1.59 1.67 1.60 1.77 1.97 1.73 2.00 1.78 1.79 1.90 1.95 2.12 2.09 1.92 1.89 2.23 2.33 1.84 1.45 1.49 1.38 1.33 1.53 1.55 1.61 1.92 2.20 2.33 2.33 2.12
2.58 2.89 3.23 3.45 3.29 2.75 2.54 2.37 2.25 2.19 2.01 1.97 1.89 1.85 1.63 1.58 1.68 1.60 1.94 1.80 1.83 1.97 2.01 2.09 2.21 2.20 1.97 1.92 2.29 2.66 2.30 2.22 1.94 1.21 1.25 1.42 1.52 1.76 1.81 1.80 2.02 2.34 2.13
2.43 2.61 2.50 2.72 2.89 2.62 2.53 2.46 2.36 2.29 2.08 2.14 2.07 1.96 1.62 1.46 1.47 1.53 1.59 1.65 1.89 1.73 2.05 2.29 2.25 2.31 2.28 2.09 2.14 2.54 2.57 2.48 2.07 1.60 1.27 1.25 1.47 1.84 1.85 1.87 1.76 1.98 2.20
1.68 1.98 2.24 2.51 2.66 2.56 2.42 2.21 2.06 1.87 1.78 1.80 1.81 1.81 1.68 1.56 1.41 1.42 1.46 1.66 1.87 1.70 2.17 1.87 2.02 2.22 2.36 2.17 2.08 1.95 2.02 2.20 2.32 2.15 1.74 1.37 1.38 1.56 1.72 1.63 1.63 1.86 2.10
1.17 1.57 2.03 2.42 2.69 2.54 2.22 2.04 2.05 1.92 1.86 1.78 1.72 1.93 1.80 1.70 1.53 1.36 1.50 1.67 1.74 1.70 1.89 1.99 2.28 2.16 2.10 2.07 2.10 2.13 2.18 2.10 1.90 2.06 2.06 1.84 1.66 1.31 1.24 1.36 1.50 1.61 1.71
0.97 1.24 1.61 1.96 2.21 2.22 2.07 1.98 2.02 2.05 2.03 1.87 1.69 1.71 1.59 1.58 1.54 1.46 1.56 1.72 1.68 1.67 1.82 1.90 2.06 2.06 2.12 2.18 2.03 1.94 2.09 2.05 1.94 1.99 1.80 1.69 1.68 1.25 1.10 1.13 1.23 1.45 1.57